Flag for U.S.A. Weather past 2 weeks in Tacoma, Washington, U.S.A.

Now
68 °F

Scattered clouds.


Feels Like: 68 °F
Forecast: 53 / 67 °F
Wind: 13 mph from Southwest

Location: Tacoma Narrows Airport

Current Time: Jul 24, 2014 at 4:48:57 PM

Latest Report: Jul 24, 2014 at 3:53 PM


Visibility: 10 mi

Pressure: 30.21 "Hg

Humidity: 55%

Dew point: 51 °F

Location of TacomaLocation

Historic Weather in Tacoma — Graph

°F

Tacoma temperature yesterday

Maximum temperature yesterday: 63 °F (at 12:53 AM)
Minimum temperature yesterday: 56 °F (at 11:53 PM)
Average temperature yesterday: 59 °F

Past Weeks' High & Low Weather Summary

 TemperatureHumidityPressure
High88 °F (Jul 12, 5:53 PM)100% (Jul 23, 7:53 AM)30.21 "Hg (Jul 23, 7:53 AM)
Low53 °F (Jul 18, 5:53 AM)32% (Jul 16, 3:53 PM)29.88 "Hg (Jul 10, 5:53 PM)
Average66 °F67%30.02 "Hg
* Reported Jul 9 3:53 PM — Jul 24 3:53 PM, Tacoma, Weather by CustomWeather, © 2014

Note: Actual official high and low records may vary slightly from our data, if they occured in-between our weather recording intervals... More about our weather records

Advertising

Tacoma weather history for previous 24 hours

 ConditionsComfort  
Time TempWeatherWind HumidityBarometerVisibility
3:53 PM
Jul 24
68 °FScattered clouds.13 mph55%30.21 "Hg10 mi
2:53 PM69 °FMostly cloudy.12 mph55%30.20 "Hg10 mi
1:53 PM67 °FBroken clouds.16 mph59%30.19 "Hg10 mi
1:00 PM68 °FPartly sunny.12 mph57%30.19 "Hg10 mi
11:53 AM66 °FBroken clouds.14 mph68%30.18 "Hg10 mi
10:53 AM63 °FBroken clouds.15 mph73%30.17 "Hg10 mi
9:53 AM62 °FOvercast.16 mph75%30.15 "Hg10 mi
8:53 AM59 °FOvercast.15 mph78%30.13 "Hg10 mi
7:53 AM58 °FOvercast.13 mph78%30.12 "Hg10 mi
6:53 AM58 °FOvercast.14 mph75%30.09 "Hg10 mi
5:53 AM57 °FOvercast.12 mph78%30.09 "Hg10 mi
4:53 AM57 °FMostly cloudy.9 mph78%30.08 "Hg10 mi
3:53 AM57 °FMostly cloudy.10 mph78%30.07 "Hg10 mi
2:53 AM57 °FMostly cloudy.12 mph78%30.06 "Hg10 mi
1:53 AM57 °FMostly cloudy.13 mph81%30.06 "Hg10 mi
12:53 AM57 °FOvercast.7 mph81%30.06 "Hg10 mi
11:53 PM
Jul 23
56 °FOvercast.10 mph87%30.07 "Hg10 mi
10:53 PM57 °FLight rain. Overcast.7 mph83%30.07 "Hg10 mi
9:53 PM58 °FPartly sunny.9 mph75%30.08 "Hg10 mi
8:53 PM59 °FSunny.10 mph75%30.06 "Hg10 mi
7:53 PM62 °FScattered clouds.6 mph67%30.04 "Hg10 mi
6:53 PM62 °FBroken clouds.12 mph73%30.04 "Hg10 mi
5:53 PM60 °FBroken clouds.12 mph80%30.04 "Hg10 mi
4:53 PM61 °FMore clouds than sun.10 mph83%30.05 "Hg10 mi
Weather by CustomWeather, © 2014

See weather overviewHow to use our weather pages